Weather Roundup
Issued by NWS

Home | Current Version | Previous Version | Text Only | Print | Product List | Glossary On
Versions: 1 2 3 4 5 6 7 8 9 10 11 12 13 14 15 16 17 18 19 20 21 22 23 24 25 26 27 28 29 30 31 32 33 34 35 36 37 38 39 40 41 42 43 44 45 46 47 48 49 50
000
NZUS93 KARX 052110
HRRWXR

CURRENT HOURLY OBSERVATIONS ACROSS
MUCH OF THE UPPER MISSISSIPPI VALLEY
NATIONAL WEATHER SERVICE LA CROSSE WI
400 PM CDT SUN JUL 05 2015


...SOUTHEAST MINNESOTA...


CITY           SKY/WX    TMP DP  RH WIND       PRES   REMARKS
ROCHESTER      PTSUNNY   83  68  60 S18       29.95F
ROCHESTER/MAYO FAIR      82  66  58 SE9G20    29.93F
WINONA         PTSUNNY   82  64  54 CALM      29.94F
AUSTIN         PTSUNNY   82  66  57 S12G17    29.93F
ALBERT LEA     CLOUDY    82  66  57 S15       29.91S
DODGE CENTER   PTSUNNY   81  70  69 S15       29.93F
PRESTON        PTSUNNY   80  66  61 S10       29.98S
OWATONNA       PTSUNNY   82  68  61 S12       29.90S
FARIBAULT      PTSUNNY   84  70  61 S16G22    29.88F
$$

...ELSEWHERE IN MINNESOTA...


CITY           SKY/WX    TMP DP  RH WIND       PRES   REMARKS
MINNEAPOLIS    PTSUNNY   87  69  54 SE15G21   29.85F HX  91
INTNL FALLS    CLOUDY    78  66  66 W8G20     29.75F
DULUTH         PTSUNNY   81  66  60 S13       29.84F
RED WING       PTSUNNY   86  66  51 S13       29.87F
REDWOOD FALLS  MOSUNNY   89  69  51 S17       29.81F HX  93
MANKATO        MOSUNNY   84  70  61 S14G22    29.86F
WORTHINGTON    MOSUNNY   88  70  55 S16G24    29.86S HX  92
FAIRMONT       MOSUNNY   84  68  58 S17G23    29.87S
$$

...SOUTHWEST WISCONSIN...


CITY           SKY/WX    TMP DP  RH WIND       PRES   REMARKS
LA CROSSE      MOSUNNY   84  63  49 S16       29.96R
PRAIRIE DU CHI CLOUDY    81  62  52 SE6       29.98S
BOSCOBEL       MOSUNNY   83  63  50 SW9       29.99R
LONE ROCK      MOSUNNY   84  63  49 SW10G16   30.00S
PLATTEVILLE    MOSUNNY   82  66  58 S10       30.01S
FORT MC COY    MOSUNNY   84  59  42 S8        29.98R
CAMP DOUGLAS   SUNNY     83  66  56 S15       29.97F
VIROQUA        FAIR      81  63  53 S10       30.00S
WIS DELLS      MOSUNNY   82  60  48 S8        30.00S
$$

...ELSEWHERE IN WISCONSIN...


CITY           SKY/WX    TMP DP  RH WIND       PRES   REMARKS
MILWAUKEE      MOSUNNY   78  60  53 SE16      30.04S
MADISON        MOSUNNY   82  62  50 S13       30.01F
GREEN BAY      SUNNY     83  61  47 SW12      30.00F
EAU CLAIRE     MOSUNNY   85  64  49 S15G24    29.91F
BLACK RVR FLS  FAIR      86  59  40 S10       29.96S
MEDFORD        MOSUNNY   80  61  52 S12G17    29.99S
WAUSAU         SUNNY     83  60  45 S12       29.97S
WIS RAPIDS     MOSUNNY   84  60  44 SW13G21   29.99S
MARSHFIELD     MOSUNNY   82  61  48 S14       29.98S
RICE LAKE      CLOUDY    82  65  55 S14       29.92F
$$

...NORTHEAST IOWA...


CITY           SKY/WX    TMP DP  RH WIND       PRES   REMARKS
DECORAH          N/A    N/A N/A N/A MISG        N/A
MASON CITY     PTSUNNY   84  70  62 S18       29.93F
CHARLES CITY   PTSUNNY   82  70  65 S13       29.97R
OELWEIN        CLOUDY    81  68  65 S12G20    29.98F
$$

...ELSEWHERE IN IOWA...


CITY           SKY/WX    TMP DP  RH WIND       PRES   REMARKS
DES MOINES     PTSUNNY   87  68  52 S14       29.92F HX  90
IOWA CITY      CLOUDY    83  70  64 SE9       29.99F
FORT DODGE     PTSUNNY   84  68  58 SE13      29.91S
$$

...NORTHERN ILLINOIS...


CITY           SKY/WX    TMP DP  RH WIND       PRES   REMARKS
CHICAGO-OHARE  MOSUNNY   82  59  45 S9        30.04S
CHICAGO-MIDWAY MOSUNNY   84  59  42 S7        30.04S
MOLINE         MOSUNNY   83  65  54 S10       30.00F
ROCKFORD       MOSUNNY   82  64  54 S12       30.05S
PEORIA         SUNNY     84  64  50 S7        30.03F
$$

NOTE: "FAIR" INDICATES FEW OR NO CLOUDS BELOW 12,000 FEET WITH NO
SIGNIFICANT WEATHER AND/OR OBSTRUCTIONS TO VISIBILITY. WIND
SPEEDS ARE IN MILES-PER-HOUR.



USA.gov is the U.S. government's official web portal to all federal, state and local government web resources and services.